TimeEDT,TemperatureF,Dew PointF,Humidity,Sea Level PressureIn,VisibilityMPH,Wind Direction,Wind SpeedMPH,Gust SpeedMPH,PrecipitationIn,Events,Conditions,WindDirDegrees,DateUTC
12:15 AM,61.2,52.7,74,30.26,10.0,Calm,Calm,-,N/A,,Clear,0,2013-07-13 04:15:00
12:35 AM,61.7,51.8,70,30.26,10.0,Calm,Calm,-,N/A,,Clear,0,2013-07-13 04:35:00
12:55 AM,59.9,51.6,74,30.27,10.0,Calm,Calm,-,N/A,,Clear,0,2013-07-13 04:55:00
1:15 AM,58.3,52.2,80,30.28,10.0,Calm,Calm,-,N/A,,Clear,0,2013-07-13 05:15:00
1:35 AM,58.5,52.7,81,30.28,10.0,Calm,Calm,-,N/A,,Clear,0,2013-07-13 05:35:00
1:55 AM,58.1,52.9,83,30.28,10.0,Calm,Calm,-,N/A,,Clear,0,2013-07-13 05:55:00
2:15 AM,58.3,53.1,83,30.29,10.0,Calm,Calm,-,N/A,,Clear,0,2013-07-13 06:15:00
2:35 AM,56.7,52.5,86,30.29,10.0,Calm,Calm,-,N/A,,Clear,0,2013-07-13 06:35:00
2:55 AM,57.2,52.7,85,30.30,10.0,Calm,Calm,-,N/A,,Clear,0,2013-07-13 06:55:00
3:15 AM,56.8,52.9,87,30.30,10.0,Calm,Calm,-,N/A,,Clear,0,2013-07-13 07:15:00
3:35 AM,56.3,51.8,85,30.30,10.0,Calm,Calm,-,N/A,,Clear,0,2013-07-13 07:35:00
3:55 AM,56.1,52.9,89,30.30,10.0,Calm,Calm,-,N/A,,Clear,0,2013-07-13 07:55:00
4:15 AM,56.3,52.3,87,30.30,10.0,Calm,Calm,-,N/A,,Clear,0,2013-07-13 08:15:00
4:35 AM,55.8,52.7,89,30.30,10.0,Calm,Calm,-,N/A,,Clear,0,2013-07-13 08:35:00
4:55 AM,55.2,51.8,88,30.30,10.0,Calm,Calm,-,N/A,,Clear,0,2013-07-13 08:55:00
5:15 AM,54.5,51.3,89,30.30,10.0,Calm,Calm,-,N/A,,Clear,0,2013-07-13 09:15:00
5:35 AM,54.5,51.4,89,30.30,10.0,Calm,Calm,-,N/A,,Clear,0,2013-07-13 09:35:00
5:55 AM,54.5,51.6,90,30.31,10.0,Calm,Calm,-,N/A,,Clear,0,2013-07-13 09:55:00
6:15 AM,54.9,51.6,89,30.32,10.0,ESE,3.5,-,N/A,,Clear,120,2013-07-13 10:15:00
6:35 AM,56.3,52.7,88,30.32,10.0,Calm,Calm,-,N/A,,Clear,0,2013-07-13 10:35:00
6:55 AM,57.2,53.2,87,30.32,10.0,Calm,Calm,-,N/A,,Clear,0,2013-07-13 10:55:00
7:15 AM,58.8,53.6,83,30.33,10.0,Calm,Calm,-,N/A,,Clear,0,2013-07-13 11:15:00
7:35 AM,60.8,55.0,81,30.33,10.0,Calm,Calm,-,N/A,,Clear,0,2013-07-13 11:35:00
7:55 AM,63.0,55.9,78,30.34,10.0,Calm,Calm,-,N/A,,Clear,0,2013-07-13 11:55:00
8:15 AM,65.3,56.3,73,30.34,10.0,Calm,Calm,-,N/A,,Clear,0,2013-07-13 12:15:00
8:35 AM,66.0,56.3,71,30.35,10.0,Calm,Calm,-,N/A,,Clear,0,2013-07-13 12:35:00
8:55 AM,67.8,57.2,69,30.35,10.0,Calm,Calm,-,N/A,,Clear,0,2013-07-13 12:55:00
9:15 AM,69.4,57.2,65,30.35,10.0,Calm,Calm,-,N/A,,Clear,0,2013-07-13 13:15:00
9:35 AM,70.7,58.1,64,30.35,10.0,Calm,Calm,-,N/A,,Clear,0,2013-07-13 13:35:00
9:55 AM,72.1,58.6,62,30.35,10.0,Calm,Calm,-,N/A,,Clear,0,2013-07-13 13:55:00
10:15 AM,73.8,59.4,61,30.35,10.0,Calm,Calm,-,N/A,,Clear,0,2013-07-13 14:15:00
10:35 AM,73.8,58.8,59,30.35,10.0,Calm,Calm,-,N/A,,Scattered Clouds,0,2013-07-13 14:35:00
10:55 AM,74.7,59.0,58,30.35,10.0,Calm,Calm,-,N/A,,Mostly Cloudy,0,2013-07-13 14:55:00
11:15 AM,75.6,60.4,59,30.35,10.0,Calm,Calm,-,N/A,,Mostly Cloudy,0,2013-07-13 15:15:00
11:35 AM,77.4,60.4,56,30.34,10.0,South,5.8,-,N/A,,Scattered Clouds,180,2013-07-13 15:35:00
11:55 AM,77.4,57.9,51,30.34,10.0,Calm,Calm,-,N/A,,Scattered Clouds,0,2013-07-13 15:55:00
12:15 PM,78.6,58.1,49,30.34,10.0,SSW,4.6,-,N/A,,Mostly Cloudy,200,2013-07-13 16:15:00
12:35 PM,80.2,57.2,45,30.34,10.0,South,8.1,-,N/A,,Mostly Cloudy,170,2013-07-13 16:35:00
12:55 PM,79.7,56.1,44,30.34,10.0,South,8.1,-,N/A,,Mostly Cloudy,180,2013-07-13 16:55:00
1:15 PM,78.8,57.4,48,30.34,10.0,South,4.6,-,N/A,,Mostly Cloudy,190,2013-07-13 17:15:00
1:35 PM,79.0,57.2,47,30.33,10.0,South,4.6,-,N/A,,Mostly Cloudy,190,2013-07-13 17:35:00
1:55 PM,78.4,59.4,52,30.33,10.0,South,9.2,-,N/A,,Overcast,180,2013-07-13 17:55:00
2:15 PM,78.4,58.5,50,30.33,10.0,SSE,6.9,-,N/A,,Mostly Cloudy,150,2013-07-13 18:15:00
2:35 PM,78.3,59.5,52,30.33,10.0,South,5.8,-,N/A,,Scattered Clouds,190,2013-07-13 18:35:00
2:55 PM,77.5,59.7,54,30.33,10.0,South,5.8,-,N/A,,Mostly Cloudy,170,2013-07-13 18:55:00
3:15 PM,79.2,59.4,51,30.33,10.0,South,5.8,-,N/A,,Scattered Clouds,190,2013-07-13 19:15:00
3:35 PM,80.6,59.7,49,30.32,10.0,SSW,6.9,-,N/A,,Mostly Cloudy,200,2013-07-13 19:35:00
3:55 PM,79.0,57.4,47,30.32,10.0,SW,8.1,-,N/A,,Scattered Clouds,230,2013-07-13 19:55:00
4:15 PM,79.0,58.3,49,30.32,10.0,SSE,5.8,-,N/A,,Mostly Cloudy,160,2013-07-13 20:15:00
4:35 PM,79.3,59.7,51,30.31,10.0,South,6.9,-,N/A,,Mostly Cloudy,190,2013-07-13 20:35:00
4:55 PM,77.9,59.9,54,30.31,10.0,South,4.6,-,N/A,,Mostly Cloudy,190,2013-07-13 20:55:00
5:15 PM,78.3,59.4,52,30.31,10.0,South,8.1,-,N/A,,Mostly Cloudy,180,2013-07-13 21:15:00
5:35 PM,77.4,60.1,55,30.31,10.0,South,5.8,-,N/A,,Mostly Cloudy,180,2013-07-13 21:35:00
5:55 PM,78.1,60.3,54,30.30,10.0,South,5.8,-,N/A,,Mostly Cloudy,170,2013-07-13 21:55:00
6:15 PM,78.3,59.7,53,30.31,10.0,SSW,8.1,-,N/A,,Clear,210,2013-07-13 22:15:00
6:35 PM,77.9,60.3,54,30.31,10.0,South,4.6,-,N/A,,Clear,190,2013-07-13 22:35:00
6:55 PM,77.4,59.5,54,30.31,10.0,South,4.6,-,N/A,,Clear,190,2013-07-13 22:55:00
7:15 PM,76.5,60.1,57,30.31,10.0,South,5.8,-,N/A,,Clear,170,2013-07-13 23:15:00
7:35 PM,75.6,59.9,58,30.32,10.0,SSE,5.8,-,N/A,,Scattered Clouds,160,2013-07-13 23:35:00
7:55 PM,74.7,59.4,59,30.32,10.0,SSE,5.8,-,N/A,,Scattered Clouds,160,2013-07-13 23:55:00
8:15 PM,73.8,60.1,62,30.31,10.0,South,4.6,-,N/A,,Scattered Clouds,170,2013-07-14 00:15:00
8:35 PM,72.1,59.9,65,30.32,10.0,South,5.8,-,N/A,,Clear,170,2013-07-14 00:35:00
8:55 PM,71.2,60.1,68,30.33,10.0,South,4.6,-,N/A,,Clear,170,2013-07-14 00:55:00
9:15 PM,71.1,60.3,69,30.33,10.0,South,4.6,-,N/A,,Clear,170,2013-07-14 01:15:00
9:35 PM,70.3,60.6,71,30.33,10.0,South,5.8,-,N/A,,Clear,170,2013-07-14 01:35:00
9:55 PM,70.7,60.4,70,30.34,10.0,Calm,Calm,-,N/A,,Clear,0,2013-07-14 01:55:00
10:15 PM,69.4,60.4,73,30.33,10.0,South,4.6,-,N/A,,Clear,170,2013-07-14 02:15:00
10:35 PM,70.3,61.0,72,30.34,10.0,SE,3.5,-,N/A,,Clear,140,2013-07-14 02:35:00
10:55 PM,68.7,60.8,76,30.34,10.0,Calm,Calm,-,N/A,,Mostly Cloudy,0,2013-07-14 02:55:00
11:15 PM,69.1,60.8,75,30.34,10.0,Calm,Calm,-,N/A,,Overcast,0,2013-07-14 03:15:00
11:35 PM,68.5,61.3,78,30.34,10.0,Calm,Calm,-,N/A,,Mostly Cloudy,0,2013-07-14 03:35:00
11:55 PM,68.2,61.3,79,30.34,10.0,Calm,Calm,-,N/A,,Scattered Clouds,0,2013-07-14 03:55:00